Location: Brno
(49.2000°N, 16.6330°E)
Time: 20:32:20
(UTC+02:00)

Explorer 11/Cluster Stage 4 - Pass Details

Date: 28 July 2021
Orbit: 467 x 1257 km, 28.8° (Epoch: 17 September)

Event Time Altitude Azimuth Distance (km) Brightness Sun altitude
Rises 14:28:18 0° 240° (WSW) 4,011 10.7 54.9°
Reaches altitude 10° 14:33:44 10° 209° (SSW) 2,867 10.2 54.3°
Maximum altitude 14:35:42 11° 193° (SSW) 2,694 10.0 54.1°
Drops below altitude 10° 14:37:35 10° 176° (S) 2,707 9.9 53.9°
Sets 14:42:14 0° 144° (SE) 3,426 10.0 53.4°
